Peshawar, Pakistan

2:29 PM PKT on February 24, 2017 (GMT +0500)
Peshawar International

Weather History for OPPS - May, 2014

Change the Weather History Date:

Wednesday, May 7, 2014

  Actual Average Record
Temperature  
Mean Temperature 83 °F -  
Max Temperature 93 °F 99 °F - ()
Min Temperature 73 °F 72 °F - ()
Cooling Degree Days 18    
Growing Degree Days 33 (Base 50)    
Moisture  
Dew Point 61 °F    
Average Humidity 48    
Maximum Humidity 69    
Minimum Humidity 36    
Precipitation  
Precipitation 0.00 in 0.03 in - ()
Sea Level Pressure  
Sea Level Pressure 29.76 in    
Wind  
Wind Speed 2 mph ()    
Max Wind Speed 9 mph    
Max Gust Speed -    
Visibility 2.5 miles    
Events Thunderstorm    
T = Trace of Precipitation, MM = Missing Value Source: Averaged Metar Reports

Daily Weather History Graph

Daily Weather History Graph

Search for Another Location

Airport or City:

Trip Planner

Search our weather history database for the weather conditions in past years. The results will help you decide how hot, cold, wet, or windy it might be!

Date:

Astronomy

May. 07, 2014 Rise Set
Actual Time 5:19 AM PKT 7:01 PM PKT
Civil Twilight 4:52 AM PKT 7:28 PM PKT
Nautical Twilight 4:19 AM PKT 8:01 PM PKT
Astronomical Twilight 3:45 AM PKT 8:36 PM PKT
Moon 12:01 PM PKT (5/7) 12:42 AM PKT (5/7)
Length of Visible Light 14h 36m
Length of Day
13h 42m
First Quarter, 51% of the Moon is Illuminated
May 7
First Quarter
May 15
Full
May 21
Last Quarter
May 28
New
Jun 6
First Quarter

Hourly Weather History & Observations

Time (PKT) Temp. Heat Index Dew Point Humidity Pressure Visibility Wind Dir Wind Speed Gust Speed Precip Events Conditions
12:00 AM 78.8 °F - 53.6 °F 42% 29.80 in - North - - N/A   Haze
1:00 AM 78.8 °F - 53.6 °F 42% 29.77 in - North - - N/A   Haze
2:00 AM 77.0 °F - 55.4 °F 47% 29.77 in - North - - N/A   Haze
3:00 AM 77.0 °F - 53.6 °F 44% 29.77 in - North - - N/A   Haze
4:00 AM 73.4 °F - 57.2 °F 57% 29.77 in - North - - N/A   Haze
5:00 AM 73.4 °F - 62.6 °F 69% 29.77 in 2.5 mi Calm Calm - N/A   Haze
6:00 AM 73.4 °F - 62.6 °F 69% 29.80 in 2.5 mi Calm Calm - N/A   Haze
7:00 AM 75.2 °F - 62.6 °F 65% 29.80 in - North - - N/A   Haze
8:00 AM 78.8 °F - 62.6 °F 57% 29.80 in 2.5 mi North 9.2 mph - N/A   Haze
9:00 AM 82.4 °F 83.9 °F 64.4 °F 54% 29.83 in 2.5 mi North 9.2 mph - N/A   Haze
10:00 AM 82.4 °F 83.9 °F 64.4 °F 54% 29.80 in - North - - N/A   Haze
11:00 AM 86.0 °F 87.3 °F 64.4 °F 48% 29.80 in - North - - N/A   Haze
12:00 PM 89.6 °F 91.1 °F 64.4 °F 43% 29.80 in - North - - N/A   Haze
1:00 PM 91.4 °F 94.0 °F 66.2 °F 43% 29.77 in - North - - N/A   Haze
2:00 PM 93.2 °F 94.1 °F 62.6 °F 36% 29.74 in - North - - N/A   Haze
3:00 PM 93.2 °F 94.1 °F 62.6 °F 36% 29.71 in - North - - N/A   Haze
4:00 PM 89.6 °F 92.2 °F 66.2 °F 46% 29.68 in - North - - N/A   Haze
5:00 PM 91.4 °F 92.1 °F 62.6 °F 38% 29.68 in - North - - N/A Thunderstorm Thunderstorm
6:00 PM 87.8 °F 87.6 °F 60.8 °F 40% 29.68 in - North - - N/A Thunderstorm Thunderstorm
7:00 PM 87.8 °F 87.6 °F 60.8 °F 40% 29.74 in - North - - N/A Thunderstorm Thunderstorm
8:00 PM 84.2 °F 84.4 °F 60.8 °F 45% 29.71 in - North - - N/A Thunderstorm Thunderstorm
9:00 PM 84.2 °F 84.4 °F 60.8 °F 45% 29.74 in - North - - N/A Thunderstorm Thunderstorm
10:00 PM 80.6 °F 81.1 °F 59.0 °F 48% 29.77 in - North - - N/A Thunderstorm Thunderstorm
11:00 PM 78.8 °F - 59.0 °F 51% 29.83 in - North - - N/A Thunderstorm Thunderstorm